[[{"header":{"parameterUnit":"m.s-1","parameterCategory":1,"la1":30.2991,"la2":30.254,"lo1":-89.0895,"lo2":-89.0444,"dy":0.0017,"dx":0.0017,"nx":28,"ny":28,"refTime":"2025-08-09T03:00:00:Z","depth":0,"parameterNumber":2,"parameterNumberName":"U-component_of_WINDS"},"data":[0,0,0,0,0,0,0,0,0,0,0,0,0,0,0,0,0,0,0,0,0,0,0,0,0,0,0,0,0,0,0,0,0,0,0,0,0,0,0,0,0,0,0,0,0,0,0,0,0,0,0,0,0,0,0,0,0,0,-3.6626,-3.6626,0,-3.6625,-3.6625,-3.6625,-3.6526,-3.6523,-3.6521,-3.6518,-3.6523,-3.6526,-3.6528,0,0,0,0,0,0,0,0,0,0,0,0,0,-3.6547,-3.6549,-3.6626,-3.6626,-3.6626,-3.6625,-3.6625,-3.6625,-3.6526,-3.6523,-3.652,-3.6517,-3.6522,-3.6525,-3.6529,0,0,0,0,0,0,0,0,0,0,0,0,0,-3.6568,-3.655,-3.6626,-3.6576,-3.6572,-3.6625,-3.6625,-3.6625,-3.6527,-3.6523,-3.6519,-3.6516,-3.6521,-3.6525,-3.6529,-3.6631,0,0,-3.6541,-3.6542,0,0,0,0,0,0,0,0,-3.6567,-3.6571,-3.6583,-3.658,-3.6575,-3.6571,-3.6599,-3.6627,-3.6528,-3.6544,-3.6518,-3.6514,-3.6543,-3.6545,-3.6553,-3.6631,-3.6632,-3.6541,-3.6543,-3.6545,-3.6546,0,0,0,0,0,0,0,-3.6565,-3.657,-3.6625,-3.6584,-3.6579,-3.6556,-3.6555,-3.6604,-3.6566,-3.6543,-3.6535,-3.6536,-3.654,-3.655,-3.6553,-3.6632,-3.6541,-3.6544,-3.6547,-3.6548,-3.6796,-3.68,0,0,0,0,0,0,-3.657,-3.657,-3.6625,-3.6625,-3.6561,-3.6561,-3.6559,-3.6577,-3.6565,-3.6559,-3.654,-3.6532,-3.6545,-3.6548,-3.6553,-3.6673,-3.6545,-3.6549,-3.6551,-3.6792,-3.6797,-3.6802,0,0,0,0,0,0,-3.6569,-3.6576,-3.6626,-3.6596,-3.66,-3.6566,-3.6587,-3.6579,-3.6589,-3.6563,-3.6556,-3.6557,-3.6542,-3.6547,-3.6613,-3.6672,-3.655,-3.6554,-3.6787,-3.6794,-3.68,-3.6915,0,0,0,0,0,0,-3.6567,-3.6576,-3.6613,-3.6597,-3.6602,-3.6684,-3.659,-3.6581,-3.6595,-3.6584,-3.6577,-3.6572,-3.654,-3.6607,-3.6616,-3.6675,-3.6557,-3.6782,-3.679,-3.6798,-3.6906,-3.6925,-3.6941,0,0,0,0,0,-3.6564,-3.6646,-3.6615,-3.6623,-3.6647,-3.6688,-3.6691,-3.665,-3.66,-3.6638,-3.6622,-3.6572,-3.6664,-3.6615,-3.6624,-3.6685,-3.6778,-3.6788,-3.6797,-3.6898,-3.6921,-3.694,0,0,0,0,0,0,-3.6672,-3.6643,-3.6609,-3.6687,-3.6691,-3.6671,-3.6718,-3.6676,-3.6694,-3.6684,-3.6635,-3.6634,-3.6708,-3.6703,-3.6649,-3.6785,-3.6712,-3.6724,-3.6786,-3.6807,-3.6825,-3.6825,-3.656,0,0,0,0,0,-3.6704,-3.6737,-3.6711,-3.6783,-3.6787,-3.6752,-3.6768,-3.6737,-3.6739,-3.674,-3.6728,-3.6734,-3.6764,-3.6785,-3.6811,-3.6904,-3.6903,-3.6951,-3.6968,-3.6983,-3.6994,-3.7046,-3.7068,-3.6834,-3.6833,-3.6833,0,0,-3.6772,-3.6761,-3.6785,-3.6805,-3.6803,-3.6841,-3.6754,-3.6797,-3.6826,-3.6747,-3.6808,-3.68,-3.6803,-3.6884,-3.6918,-3.6881,-3.7059,-3.6995,-3.7007,-3.7011,-3.7058,-3.708,-3.71,-3.684,-3.6839,-3.6838,0,0,-3.6916,-3.691,-3.697,-3.697,-3.6969,-3.6946,-3.6961,-3.6947,-3.6939,-3.6999,-3.6941,-3.6975,-3.7027,-3.7033,-3.7042,-3.7189,-3.7146,-3.7199,-3.7292,-3.7342,-3.7361,-3.7377,-3.7432,-3.7453,-3.7211,-3.7211,-3.7211,0,-3.7002,-3.7054,-3.7007,-3.7054,-3.7066,-3.6995,-3.7057,-3.7061,-3.7069,-3.708,-3.7037,-3.7103,-3.71,-3.7181,-3.7218,-3.7227,-3.7244,-3.7201,-3.7362,-3.7377,-3.7392,-3.7444,-3.7465,-3.7218,-3.7217,-3.7216,-3.7215,0,-3.7161,-3.7199,-3.7248,-3.7257,-3.7273,-3.7328,-3.7291,-3.7314,-3.7282,-3.7264,-3.7328,-3.7321,-3.7346,-3.7362,-3.7331,-3.7441,-3.7418,-3.737,-3.7296,-3.7422,-3.747,-3.749,-3.7227,-3.7225,-3.7223,-3.7221,0,0,-3.7374,-3.7355,-3.7374,-3.7378,-3.7372,-3.7401,-3.7454,-3.7476,-3.7499,-3.7507,-3.7552,-3.7598,-3.7553,-3.7564,-3.7533,-3.7577,-3.7698,-3.7523,-3.7523,-3.7559,-3.7822,-3.786,-3.7884,-3.7668,-3.7671,-3.7674,-3.7822,0,-3.7515,-3.7602,-3.7561,-3.7654,-3.769,-3.7623,-3.767,-3.7672,-3.7657,-3.7687,-3.767,-3.7705,-3.7642,-3.7648,-3.7689,-3.7675,-3.7751,-3.7663,-3.7712,-3.7715,-3.7716,-3.7909,-3.7949,-3.809,-3.7841,-3.7844,-3.7846,0,-3.7691,-3.7706,-3.7803,-3.7791,-3.7805,-3.7847,-3.7865,-3.7894,-3.7896,-3.7882,-3.7895,-3.7854,-3.7908,-3.7833,-3.7907,-3.7849,-3.7866,-3.7863,-3.7867,-3.7872,-3.779,-3.7922,-3.8133,-3.8155,-3.7875,-3.7873,-3.7871,0,-3.784,-3.7884,-3.7948,-3.7953,-3.7941,-3.7972,-3.7969,-3.7967,-3.7984,-3.8001,-3.8012,-3.8035,-3.8049,-3.8069,-3.8037,-3.7985,-3.8117,-3.8039,-3.811,-3.8111,-3.8143,-3.8142,-3.8362,-3.815,-3.815,-3.8149,-3.8149,0,-3.8004,-3.8066,-3.8015,-3.8054,-3.8123,-3.8076,-3.8146,-3.8136,-3.8135,-3.8173,-3.8117,-3.8155,-3.8108,-3.8142,-3.8117,-3.8185,-3.8191,-3.8183,-3.8176,-3.819,-3.8191,-3.8202,-3.8193,-3.8155,-3.8153,-3.8152,-3.8151,0,-3.8183,-3.815,-3.8216,-3.8199,-3.8196,-3.8248,-3.8234,-3.8271,-3.8252,-3.8301,-3.831,-3.8281,-3.8318,-3.8287,-3.8323,-3.8306,-3.8397,-3.8375,-3.8396,-3.8391,-3.8464,-3.8459,-3.8702,-3.8733,-3.8499,-3.8501,-3.8503,0,-3.8291,-3.8337,-3.8325,-3.8345,-3.8345,-3.8379,-3.8396,-3.8352,-3.8373,-3.838,-3.8417,-3.8449,-3.8472,-3.8535,-3.8519,-3.8547,-3.8527,-3.861,-3.8531,-3.8544,-3.8532,-3.8531,-3.8536,-3.8627,-3.863,-3.8632,-3.8634,0,-3.8487,-3.8468,-3.8493,-3.8514,-3.8535,-3.855,-3.856,-3.8581,-3.8536,-3.8562,-3.8599,-3.8617,-3.8654,-3.8687,-3.871,-3.8709,-3.8666,-3.8659,-3.8677,-3.8693,-3.8704,-3.8702,-3.8443,-3.8654,-3.8652,-3.8651,-3.8649,-3.8649,-3.8635,-3.8674,-3.8671,-3.8702,-3.8705,-3.8716,-3.8751,-3.8735,-3.8764,-3.879,-3.8763,-3.8808,-3.8812,-3.8837,-3.8842,-3.8878,-3.8844,-3.887,-3.8877,-3.8885,-3.8897,-3.8696,-3.8882,-3.8881,-3.8881,-3.888,-3.888,0,-3.883,-3.8825,-3.8854,-3.887,-3.8895,-3.8849,-3.8858,-3.8883,-3.8923,-3.8928,-3.8953,-3.8996,-3.9029,-3.9015,-3.9044,-3.9076,-3.9057,-3.9086,-3.9084,-3.9086,-3.8924,-3.8907,-3.9101,-3.9101,-3.91,-3.91,-3.91,-3.91,-3.8935,-3.8999,-3.8981,-3.9047,-3.9042,-3.9084,-3.9094,-3.9105,-3.911,-3.916,-3.9186,-3.9176,-3.9175,-3.9204,-3.9233,-3.9228,-3.9243,-3.9279,-3.9268,-3.9118,-3.9096,-3.9076,-3.9059,-3.9282,-3.9282,-3.9426,-3.9428,-3.9429]},{"header":{"parameterUnit":"m.s-1","parameterCategory":1,"la1":30.2991,"la2":30.254,"lo1":-89.0895,"lo2":-89.0444,"dy":0.0017,"dx":0.0017,"nx":28,"ny":28,"refTime":"2025-08-09T03:00:00:Z","depth":0,"parameterNumber":3,"parameterNumberName":"V-component_of_WINDS"},"data":[0,0,0,0,0,0,0,0,0,0,0,0,0,0,0,0,0,0,0,0,0,0,0,0,0,0,0,0,0,0,0,0,0,0,0,0,0,0,0,0,0,0,0,0,0,0,0,0,0,0,0,0,0,0,0,0,0,0,-0.343,-0.3431,0,-0.348,-0.3481,-0.3481,-0.3464,-0.3463,-0.3462,-0.3461,-0.3517,-0.3519,-0.3522,0,0,0,0,0,0,0,0,0,0,0,0,0,-0.3323,-0.3325,-0.343,-0.3431,-0.3431,-0.348,-0.3481,-0.3481,-0.3464,-0.3463,-0.3461,-0.346,-0.3516,-0.3519,-0.3522,0,0,0,0,0,0,0,0,0,0,0,0,0,-0.3371,-0.3326,-0.343,-0.3428,-0.3429,-0.348,-0.3481,-0.3482,-0.3464,-0.3463,-0.3461,-0.3459,-0.3515,-0.3518,-0.3522,-0.3579,0,0,-0.3534,-0.3536,0,0,0,0,0,0,0,0,-0.3368,-0.3375,-0.3428,-0.3429,-0.3429,-0.3464,-0.3464,-0.3515,-0.3465,-0.3451,-0.346,-0.3459,-0.3501,-0.3506,-0.3519,-0.3582,-0.3584,-0.3534,-0.3537,-0.3538,-0.3539,0,0,0,0,0,0,0,-0.3365,-0.3373,-0.345,-0.3429,-0.3429,-0.3426,-0.3431,-0.3473,-0.3485,-0.3452,-0.3451,-0.3457,-0.3501,-0.3515,-0.352,-0.3585,-0.3534,-0.3537,-0.354,-0.3541,-0.3699,-0.3701,0,0,0,0,0,0,-0.3361,-0.337,-0.3448,-0.3451,-0.3394,-0.343,-0.3435,-0.3455,-0.3484,-0.3487,-0.3458,-0.3456,-0.351,-0.3516,-0.3522,-0.3592,-0.3538,-0.3542,-0.3544,-0.3697,-0.3699,-0.3701,0,0,0,0,0,0,-0.3359,-0.3368,-0.3446,-0.3411,-0.342,-0.3433,-0.3455,-0.3456,-0.3471,-0.3489,-0.3491,-0.3471,-0.3508,-0.3517,-0.3565,-0.3594,-0.3543,-0.3547,-0.3695,-0.3698,-0.37,-0.3732,0,0,0,0,0,0,-0.3356,-0.3367,-0.3389,-0.3411,-0.3422,-0.3488,-0.3457,-0.3459,-0.3477,-0.3474,-0.3501,-0.3504,-0.3508,-0.356,-0.3569,-0.3598,-0.355,-0.3692,-0.3696,-0.3699,-0.3729,-0.3736,-0.3742,0,0,0,0,0,-0.3352,-0.3397,-0.339,-0.3399,-0.3449,-0.3489,-0.3496,-0.3498,-0.3479,-0.3501,-0.3513,-0.3503,-0.3588,-0.3565,-0.3575,-0.3606,-0.369,-0.3695,-0.3699,-0.3726,-0.3734,-0.3742,0,0,0,0,0,0,-0.3379,-0.34,-0.3392,-0.3445,-0.3465,-0.3486,-0.3515,-0.3507,-0.3534,-0.3531,-0.3533,-0.354,-0.359,-0.3602,-0.3575,-0.3663,-0.3637,-0.3643,-0.3654,-0.3662,-0.3668,-0.3666,-0.3553,0,0,0,0,0,-0.3391,-0.3421,-0.3437,-0.3482,-0.3493,-0.3502,-0.352,-0.3519,-0.3541,-0.355,-0.3565,-0.3588,-0.362,-0.3641,-0.3671,-0.3729,-0.3736,-0.3756,-0.3762,-0.3767,-0.3774,-0.3807,-0.3816,-0.3715,-0.3715,-0.3715,0,0,-0.3416,-0.3431,-0.345,-0.3488,-0.3504,-0.3537,-0.3509,-0.3545,-0.357,-0.3556,-0.3603,-0.3614,-0.364,-0.3694,-0.3718,-0.3706,-0.3803,-0.3773,-0.3777,-0.3781,-0.3812,-0.3822,-0.3831,-0.3718,-0.3718,-0.3717,0,0,-0.348,-0.3493,-0.3532,-0.3548,-0.3571,-0.3577,-0.3586,-0.3608,-0.3615,-0.3661,-0.3652,-0.3681,-0.3736,-0.3755,-0.3772,-0.384,-0.3834,-0.385,-0.3886,-0.3918,-0.3926,-0.3933,-0.396,-0.3969,-0.3856,-0.3856,-0.3856,0,-0.3509,-0.3556,-0.3554,-0.359,-0.3608,-0.3594,-0.3635,-0.3651,-0.3684,-0.3697,-0.3682,-0.375,-0.3766,-0.3825,-0.3841,-0.3854,-0.3867,-0.3849,-0.3924,-0.3932,-0.3938,-0.3964,-0.3974,-0.3858,-0.3858,-0.3858,-0.3857,0,-0.3592,-0.3625,-0.3654,-0.3685,-0.3705,-0.3744,-0.3748,-0.377,-0.3766,-0.3774,-0.3822,-0.384,-0.3874,-0.3887,-0.3885,-0.3946,-0.3938,-0.3923,-0.3898,-0.395,-0.3974,-0.3984,-0.3861,-0.386,-0.386,-0.3859,0,0,-0.3678,-0.3704,-0.3715,-0.3729,-0.3753,-0.3779,-0.3817,-0.3849,-0.3868,-0.389,-0.3923,-0.3969,-0.3955,-0.3974,-0.3974,-0.4002,-0.4057,-0.3984,-0.3985,-0.3999,-0.4127,-0.414,-0.4151,-0.4051,-0.4053,-0.4054,-0.4126,0,-0.3745,-0.381,-0.3808,-0.387,-0.3901,-0.3888,-0.3921,-0.394,-0.3947,-0.3976,-0.3984,-0.4017,-0.3995,-0.4007,-0.4033,-0.4045,-0.4083,-0.4039,-0.4085,-0.4086,-0.4082,-0.4164,-0.4177,-0.4244,-0.4135,-0.4137,-0.4138,0,-0.3833,-0.3857,-0.3921,-0.394,-0.3953,-0.3983,-0.4012,-0.4038,-0.406,-0.4063,-0.4083,-0.4078,-0.4118,-0.4088,-0.4144,-0.4114,-0.4132,-0.414,-0.4143,-0.415,-0.4118,-0.4176,-0.4266,-0.4277,-0.4152,-0.4151,-0.415,0,-0.3892,-0.3939,-0.3984,-0.3996,-0.4019,-0.4041,-0.4051,-0.4071,-0.409,-0.4115,-0.4128,-0.4158,-0.4175,-0.4199,-0.4202,-0.418,-0.4259,-0.423,-0.4265,-0.4266,-0.4286,-0.4285,-0.4383,-0.4292,-0.4292,-0.4292,-0.4292,0,-0.3969,-0.401,-0.4011,-0.4039,-0.4084,-0.4081,-0.4127,-0.4136,-0.4153,-0.4183,-0.4173,-0.4202,-0.4203,-0.4234,-0.4236,-0.4283,-0.4291,-0.4296,-0.4297,-0.4299,-0.4299,-0.4313,-0.431,-0.4294,-0.4294,-0.4293,-0.4293,0,-0.4044,-0.4046,-0.4095,-0.4111,-0.4116,-0.4149,-0.4164,-0.4192,-0.4196,-0.4235,-0.4244,-0.4253,-0.4288,-0.4293,-0.4334,-0.4336,-0.4393,-0.4388,-0.4386,-0.4386,-0.4423,-0.442,-0.4536,-0.4552,-0.4448,-0.4449,-0.445,0,-0.4095,-0.4125,-0.4145,-0.4164,-0.4175,-0.4206,-0.4224,-0.4222,-0.4243,-0.4269,-0.4293,-0.4327,-0.4354,-0.441,-0.4421,-0.4453,-0.445,-0.4488,-0.4455,-0.4456,-0.4454,-0.4453,-0.4457,-0.4496,-0.4497,-0.4498,-0.4499,0,-0.4185,-0.4185,-0.4212,-0.4239,-0.4261,-0.4283,-0.4304,-0.432,-0.4321,-0.4344,-0.4379,-0.4399,-0.444,-0.4475,-0.4505,-0.4518,-0.451,-0.4508,-0.4519,-0.4523,-0.4522,-0.4525,-0.4407,-0.4507,-0.4506,-0.4505,-0.4505,-0.4504,-0.4252,-0.4279,-0.4296,-0.4327,-0.4341,-0.4361,-0.4387,-0.4394,-0.4423,-0.4455,-0.4452,-0.4491,-0.4511,-0.4552,-0.4566,-0.4597,-0.4585,-0.46,-0.4604,-0.4608,-0.4613,-0.4513,-0.4602,-0.4602,-0.4602,-0.4602,-0.4602,0,-0.4344,-0.4354,-0.4382,-0.441,-0.4435,-0.4421,-0.4443,-0.4464,-0.4498,-0.4517,-0.4543,-0.4583,-0.4615,-0.4628,-0.466,-0.4683,-0.468,-0.4692,-0.4692,-0.4695,-0.4621,-0.461,-0.4694,-0.4694,-0.4694,-0.4694,-0.4694,-0.4694,-0.4396,-0.4441,-0.4442,-0.4495,-0.4505,-0.4541,-0.4555,-0.4573,-0.4588,-0.4633,-0.4659,-0.4666,-0.4683,-0.4716,-0.4746,-0.4749,-0.4762,-0.4777,-0.4778,-0.4709,-0.47,-0.4692,-0.4681,-0.4779,-0.4779,-0.485,-0.4851,-0.4851]}]]